Location: Melbourne
(37.8170°S, 144.9670°E)
Time: 22:57:57
(UTC+10:00)

ISS - All Passes

Search period start: 17 April 2014 00:00
Search period end: 27 April 2014 00:00
Orbit: 414 x 419 km, 51.6° (Epoch: 17 April)

Date Brightness Start Highest point End Pass type
(mag) Time Alt. Az. Time Alt. Az. Time Alt. Az.
17 Apr - 02:43:26 10° NNE 02:44:42 12° NE 02:45:59 10° ENE night (unlit)
17 Apr - 04:17:41 10° WNW 04:21:03 65° SW 04:24:26 10° SE visible
17 Apr - 05:56:31 10° SW 05:58:21 14° SSW 06:00:11 10° SSE visible
17 Apr - 09:12:24 10° SSW 09:14:23 15° SSE 09:16:22 10° ESE daylight
17 Apr - 10:48:14 10° SW 10:51:38 75° SE 10:55:00 10° NE daylight
17 Apr - 12:27:40 10° WNW 12:27:55 10° NW 12:28:10 10° NW daylight
18 Apr - 03:29:27 10° NW 03:32:48 68° NE 03:36:12 10° SE visible
18 Apr - 05:07:25 10° WSW 05:09:52 18° SSW 05:12:19 10° SSE visible
18 Apr - 08:24:40 10° S 08:25:51 11° SSE 08:27:02 10° SE daylight
18 Apr - 10:00:04 10° SW 10:03:20 42° SE 10:06:34 10° ENE daylight
18 Apr - 11:37:26 10° W 11:39:52 18° NW 11:42:16 10° N daylight
19 Apr - 02:41:29 10° NNW 02:44:35 35° NE 02:47:44 10° ESE night (unlit)
19 Apr - 04:18:29 10° W 04:21:24 26° SSW 04:24:19 10° SSE visible
19 Apr - 09:11:58 10° SSW 09:14:56 27° SSE 09:17:52 10° E daylight
19 Apr - 10:48:37 10° WSW 10:51:42 33° NW 10:54:46 10° NNE daylight
20 Apr - 01:53:53 10° N 01:56:24 20° NE 01:58:56 10° E night (unlit)
20 Apr - 03:29:44 10° WNW 03:32:57 40° SW 03:36:11 10° SE visible
20 Apr - 05:09:22 10° SW 05:10:27 11° SSW 05:11:32 10° S visible
20 Apr - 08:23:54 10° SSW 08:26:25 19° SSE 08:28:55 10° ESE daylight
20 Apr - 10:00:04 10° SW 10:03:27 63° NW 10:06:46 10° NE daylight
21 Apr - 01:07:19 10° NE 01:08:14 11° NE 01:09:08 10° ENE night (unlit)
21 Apr - 02:41:09 10° WNW 02:44:31 70° SW 02:47:56 10° SE night (unlit)
21 Apr - 04:19:52 10° SW 04:21:48 14° SSW 04:23:43 10° SSE visible
21 Apr - 07:35:54 10° SSW 07:37:48 14° SSE 07:39:42 10° SE daylight
21 Apr - 09:11:41 10° SW 09:15:05 69° SE 09:18:26 10° ENE daylight
21 Apr - 10:50:26 10° WNW 10:51:23 11° NW 10:52:19 10° NW daylight
22 Apr - 01:52:48 10° NW 01:56:08 63° NE 01:59:30 10° SE night (unlit)
22 Apr - 03:30:38 10° WSW 03:33:09 19° SSW 03:35:40 10° SSE night (unlit)
22 Apr - 06:48:03 10° S 06:49:06 11° SSE 06:50:09 10° SSE daylight
22 Apr - 08:23:22 10° SW 08:26:36 39° SE 08:29:48 10° ENE daylight
22 Apr - 10:00:36 10° W 10:03:09 20° NW 10:05:40 10° N daylight
23 Apr - 01:04:42 10° NNW 01:07:46 33° NE 01:10:51 10° ESE night (unlit)
23 Apr - 02:41:34 10° W 02:44:31 27° SSW 02:47:30 10° SSE night (unlit)
23 Apr - 07:35:07 10° SSW 07:38:01 25° SSE 07:40:54 10° E daylight
23 Apr - 09:11:40 10° WSW 09:14:49 36° NW 09:17:56 10° NNE daylight
24 Apr - 00:17:02 10° N 00:19:25 18° NE 00:21:49 10° E night (unlit)
24 Apr - 01:52:40 10° WNW 01:55:55 43° SW 01:59:12 10° SE night (unlit)
24 Apr - 03:32:09 10° SW 03:33:23 12° SSW 03:34:37 10° S night (unlit)
24 Apr - 06:46:54 10° SSW 06:49:20 18° SSE 06:51:45 10° ESE daylight
24 Apr - 08:23:00 10° SW 08:26:23 70° NW 08:29:44 10° NE daylight
25 Apr - 01:03:58 10° NW 01:07:21 77° SW 01:10:45 10° SE night (unlit)
25 Apr - 02:42:33 10° WSW 02:44:34 15° SSW 02:46:35 10° SSE night (unlit)
25 Apr - 05:58:46 10° SSW 06:00:33 14° SSE 06:02:21 10° SE visible
25 Apr - 07:34:28 10° SW 07:37:51 63° SE 07:41:12 10° ENE daylight
25 Apr - 09:12:48 10° WNW 09:14:11 12° NW 09:15:32 10° NNW daylight
26 Apr - 00:15:29 10° NW 00:18:48 56° NE 00:22:09 10° ESE night (unlit)
26 Apr - 01:53:10 10° WSW 01:55:46 20° SSW 01:58:22 10° SSE night (unlit)
26 Apr - 05:10:49 10° S 05:11:41 11° SSE 05:12:32 10° SSE visible
26 Apr - 06:46:01 10° SW 06:49:12 36° SSE 06:52:22 10° ENE daylight
26 Apr - 08:23:06 10° WSW 08:25:47 22° NW 08:28:26 10° N daylight
26 Apr - 23:27:18 10° NNW 23:30:17 30° NE 23:33:18 10° ESE night (unlit)
